#timestamp,LO_Frequency,Hit,StdDev 
1562781615.3,286046995.5,N
1562781635.1,286046995.8,N
1562781636.0,286046995.8,Y
1562781655.8,286047001.1,P
1562781675.7,286046998.1,N
1562781695.5,286046999.4,N
1562781715.4,286046999.1,N
1562781735.2,286046997.3,N
1562781755.0,286046997.1,N
1562781755.9,286046997.1,N
1562781775.8,286046996.5,N
1562781795.6,286046996.9,N
1562781815.4,286046999.6,N
1562781835.3,286046999.0,N
1562781855.1,286046998.4,N
1562781875.9,286046998.8,N
1562781895.7,286046998.9,N
1562781915.5,286046998.5,N
1562781935.4,286046998.7,N
1562781955.2,286046999.2,N
1562781975.0,286046997.1,N
1562781975.9,286046997.1,N
1562781995.8,286046996.7,N
1562782015.6,286046998.0,N
1562782035.5,286046997.3,N
1562782055.3,286046995.1,Y
1562782075.1,286046999.1,P
1562782095.9,286046998.5,P
1562782115.7,286046998.7,P
1562782135.6,286046996.8,Y
1562782155.4,286046998.8,P
1562782175.2,286046999.6,P
1562782195.1,286046996.8,P
1562782196.0,286046996.8,Y
1562782215.8,286047001.2,P
1562782235.7,286046998.1,N
1562782255.5,286046998.1,N
1562782275.3,286047000.7,N
1562782295.2,286046998.8,N
1562782315.0,286046998.4,N
1562782315.9,286046998.4,N
1562782335.8,286046998.5,N
1562782355.6,286047000.8,N
1562782375.4,286047001.1,N
1562782395.3,286046998.6,N
1562782415.1,286047001.0,N
1562782435.9,286047001.2,N
1562782455.7,286047000.8,N
1562782475.5,286047001.1,N
1562782495.4,286047000.3,N
1562782515.2,286047002.7,N
1562782535.0,286047000.5,N
1562782535.9,286047000.5,N
1562782555.8,286047002.5,N
1562782575.6,286047003.8,N
1562782595.5,286047003.4,N
1562782615.3,286047004.1,N
1562782635.1,286047006.0,Y
1562782655.9,286047004.1,P
1562782675.7,286047003.9,N
1562782695.6,286047004.1,N
1562782715.4,286047003.5,N
1562782735.2,286047001.4,N
1562782755.1,286047003.8,N
1562782756.0,286047003.8,N
1562782775.8,286047004.0,Y
1562782795.7,286047000.7,P
1562782815.5,286047002.3,N
1562782835.3,286046999.8,N
1562782855.2,286047000.7,N
1562782875.0,286047001.2,N
1562782875.9,286047001.2,N
1562782895.8,286047000.7,N
1562782915.6,286047000.3,N
1562782935.4,286047000.3,N
1562782955.3,286046998.2,N
1562782975.1,286047000.3,N
1562782995.8,286047000.5,N
1562783015.7,286047000.7,N
1562783035.5,286046998.3,N
1562783055.4,286046998.6,N
1562783075.2,286047001.1,N
1562783095.0,286047000.9,N
1562783095.9,286047000.9,N
1562783115.8,286046998.3,N
1562783135.6,286047000.4,N
1562783155.5,286047000.7,N
1562783175.3,286047000.3,N
1562783195.1,286047001.1,N
1562783215.9,286047000.3,N
1562783235.7,286047000.2,N
1562783255.5,286047002.2,N
1562783275.4,286047000.2,N
1562783295.2,286047001.0,N
1562783315.1,286047002.3,N
1562783316.0,286047002.3,N
1562783335.8,286047000.2,N
1562783355.6,286047002.5,N
1562783375.5,286047002.2,N
1562783395.3,286047002.1,N
1562783415.1,286047002.0,N
1562783435.9,286047001.7,N
1562783455.7,286047002.5,N
1562783475.6,286047002.0,N
1562783495.4,286047001.5,N
1562783515.2,286047004.4,Y
1562783535.1,286047002.2,P
1562783536.0,286047002.2,P
1562783555.8,286047001.5,N
1562783575.7,286046999.7,N
1562783595.5,286047000.9,N
1562783615.3,286047001.6,N
1562783635.2,286047002.2,N
1562783655.0,286047000.1,N
1562783655.9,286047000.1,N
1562783675.1,286047002.7,N
1562783695.9,286047002.7,N
1562783715.7,286047000.2,N
1562783735.5,286047000.0,N
1562783755.4,286047000.1,N
1562783775.2,286047002.6,N
1562783795.1,286047000.1,N
1562783796.0,286047000.1,N
1562783815.8,286047001.0,N
1562783835.6,286047000.9,N
1562783855.5,286047000.1,N
1562783875.3,286047000.6,N
1562783895.2,286046999.8,N
1562783915.9,286047002.3,N
1562783935.7,286046999.9,N
1562783955.6,286047002.2,N
1562783975.4,286047002.8,N
1562783995.2,286047002.7,N
1562784015.1,286047002.0,N
1562784016.0,286047002.0,N
1562784035.8,286047002.4,N
1562784055.7,286047002.8,N
1562784075.5,286047002.1,N
1562784095.3,286047001.8,N
1562784115.2,286047001.6,N
1562784135.0,286047002.5,N
1562784135.9,286047002.5,N
1562784155.8,286047002.1,N
1562784175.6,286047002.6,N
1562784195.4,286047001.0,N
1562784215.3,286047002.7,N
1562784235.1,286047002.8,N
1562784255.9,286047000.2,N
1562784275.7,286046999.8,N
1562784295.5,286047000.9,N
1562784315.4,286047000.9,N
1562784335.2,286046999.8,N
1562784355.0,286046999.8,N
1562784355.9,286046999.8,N
1562784375.8,286047001.3,N
1562784395.6,286047003.7,Y
1562784415.5,286047001.6,P
1562784435.3,286047002.4,P
1562784455.1,286046999.9,N
1562784475.9,286047001.5,N
1562784495.7,286047002.5,Y
1562784515.6,286047000.6,P
1562784535.4,286047001.0,N
1562784555.2,286046999.9,N
1562784575.1,286047000.2,N
1562784576.0,286047000.2,N
1562784595.8,286047000.2,N
1562784615.7,286047002.1,Y
1562784635.5,286047002.1,P
1562784655.3,286047002.6,P
1562784675.2,286046999.8,N
1562784695.9,286047002.8,N
1562784715.7,286047000.1,N
1562784735.6,286047001.7,N
1562784755.4,286047000.4,N
1562784775.3,286047001.0,N
1562784795.1,286047001.0,N
1562784796.0,286047001.0,N
1562784815.8,286047000.8,N
1562784835.7,286047000.8,N
1562784855.5,286046998.1,N
1562784875.3,286046999.8,N
1562784895.2,286046999.8,N
1562784915.0,286046998.8,N
1562784915.9,286046998.8,N
1562784935.8,286046998.1,N
1562784955.6,286046999.8,N
1562784975.4,286046999.7,N
1562784995.3,286046999.9,N
1562785015.1,286047000.3,N
1562785035.8,286046998.2,N
1562785055.7,286046998.1,N
1562785075.5,286047000.4,N
1562785095.4,286047000.8,N
1562785115.2,286047001.1,N
1562785135.0,286046996.6,N
1562785135.9,286046996.6,N
1562785155.8,286046998.0,N
1562785175.6,286046997.7,N
1562785195.5,286046997.4,N
